KB0UOA Weather Reports


time (UTC)temp
C
wind
direction
speed
KPH
gust
KPH
rain 1hr
cm
rain 24hr
cm
rain mn
cm
humidity
%
barometer
mb
20260507001204 14 30 1.6 8.0 0.00 0.53 0.53 51 1016.9
20260507001104 14 29 1.6 8.0 0.00 0.53 0.53 50 1016.9
20260507001004 14 42 1.6 8.0 0.00 0.53 0.53 51 1017.0
20260507000904 14 43 1.6 8.0 0.00 0.53 0.53 51 1017.0
20260507000804 14 48 1.6 8.0 0.00 0.53 0.53 51 1017.0
20260507000705 14 43 1.6 8.0 0.00 0.53 0.53 51 1017.0
20260507000605 14 44 1.6 8.0 0.00 0.53 0.53 51 1017.0
20260507000505 14 40 3.2 9.7 0.00 0.53 0.53 51 1016.9
20260507000405 14 37 3.2 9.7 0.00 0.53 0.53 51 1016.9
20260507000306 14 20 3.2 9.7 0.00 0.53 0.53 50 1016.9
20260507000205 14 14 3.2 9.7 0.00 0.53 0.53 51 1016.8
20260507000105 14 9 4.8 9.7 0.00 0.53 0.53 50 1016.8
20260507000005 14 358 4.8 9.7 0.00 0.53 0.53 50 1016.8
20260506235904 14 347 4.8 12.9 0.00 0.53 0.53 49 1016.9
20260506235804 14 338 4.8 12.9 0.00 0.53 0.53 49 1016.9
20260506235704 14 335 4.8 12.9 0.00 0.53 0.53 49 1016.8
20260506235604 14 329 4.8 12.9 0.00 0.53 0.53 49 1016.9
20260506235504 14 327 4.8 12.9 0.00 0.53 0.53 50 1016.9
20260506235306 14 331 4.8 12.9 0.00 0.53 0.53 49 1016.9
20260506235204 14 332 4.8 12.9 0.00 0.53 0.53 49 1016.9
20260506235104 14 330 4.8 12.9 0.00 0.53 0.53 49 1016.9
20260506235004 14 333 4.8 12.9 0.00 0.53 0.53 49 1016.9
20260506234904 15 337 4.8 12.9 0.00 0.53 0.53 48 1016.9
20260506234705 15 339 4.8 14.5 0.00 0.53 0.53 50 1016.8
20260506234604 15 343 4.8 14.5 0.00 0.53 0.53 49 1016.8
20260506234505 15 342 4.8 14.5 0.00 0.53 0.53 49 1016.8
20260506234404 15 344 6.4 14.5 0.00 0.53 0.53 48 1016.8
20260506234304 15 344 6.4 14.5 0.00 0.53 0.53 47 1016.8
20260506234204 15 346 6.4 14.5 0.00 0.53 0.53 47 1016.8
20260506234105 15 354 4.8 14.5 0.00 0.53 0.53 47 1016.8
20260506234004 15 359 4.8 14.5 0.00 0.53 0.53 47 1016.8
20260506233904 15 4 4.8 14.5 0.00 0.53 0.53 47 1016.8
20260506233804 15 8 4.8 11.3 0.00 0.53 0.53 47 1016.8
20260506233705 15 16 4.8 11.3 0.00 0.53 0.53 47 1016.8
20260506233505 15 27 3.2 11.3 0.00 0.53 0.53 47 1016.8
20260506233405 15 31 3.2 11.3 0.00 0.53 0.53 49 1016.7
20260506233305 15 31 3.2 11.3 0.00 0.53 0.53 48 1016.7
20260506233105 15 13 3.2 11.3 0.00 0.53 0.53 48 1016.8
20260506233005 15 16 3.2 11.3 0.00 0.53 0.53 48 1016.8
20260506232905 15 28 3.2 11.3 0.00 0.53 0.53 49 1016.8
20260506232805 15 33 3.2 12.9 0.00 0.53 0.53 50 1016.7
20260506232705 15 34 3.2 12.9 0.00 0.53 0.53 49 1016.7
20260506232604 15 29 3.2 12.9 0.00 0.53 0.53 50 1016.7
20260506232504 15 29 4.8 12.9 0.00 0.53 0.53 49 1016.7
20260506232404 15 24 4.8 12.9 0.00 0.53 0.53 49 1016.7
20260506232306 14 22 4.8 12.9 0.00 0.53 0.53 49 1016.6
20260506232205 14 19 6.4 12.9 0.00 0.53 0.53 49 1016.6
20260506232104 14 18 6.4 12.9 0.00 0.53 0.53 49 1016.7
20260506232004 14 18 6.4 12.9 0.00 0.53 0.53 48 1016.7
20260506231904 14 13 6.4 12.9 0.00 0.53 0.53 48 1016.6
20260506231805 14 6 6.4 12.9 0.00 0.53 0.53 49 1016.6
20260506231605 15 9 6.4 12.9 0.00 0.53 0.53 48 1016.6
20260506231312 15 8 4.8 12.9 0.00 0.53 0.53 49 1016.6
20260506231205 15 11 4.8 12.9 0.00 0.53 0.53 48 1016.6
20260506231105 15 15 4.8 12.9 0.00 0.53 0.53 48 1016.6
20260506231005 15 20 4.8 12.9 0.00 0.53 0.53 48 1016.6
20260506230905 15 40 3.2 12.9 0.00 0.53 0.53 47 1016.6
20260506230705 15 64 3.2 11.3 0.00 0.53 0.53 48 1016.6
20260506230605 15 62 3.2 11.3 0.00 0.53 0.53 47 1016.6
20260506230505 15 63 3.2 11.3 0.00 0.53 0.53 47 1016.6
20260506230404 15 62 3.2 11.3 0.00 0.53 0.53 46 1016.6
20260506230304 15 49 3.2 11.3 0.00 0.53 0.53 46 1016.6
20260506230104 15 30 3.2 11.3 0.00 0.53 0.53 45 1016.6
20260506230005 15 19 3.2 9.7 0.00 0.53 0.53 46 1016.6
20260506225904 15 358 3.2 8.0 0.00 0.53 0.53 46 1016.6
20260506225805 15 1 3.2 8.0 0.00 0.53 0.53 47 1016.6
20260506225605 15 9 3.2 8.0 0.00 0.53 0.53 47 1016.6
20260506225505 15 358 3.2 8.0 0.00 0.53 0.53 46 1016.6
20260506225404 15 5 3.2 8.0 0.00 0.53 0.53 45 1016.6
20260506225306 15 30 3.2 12.9 0.00 0.53 0.53 46 1016.6
20260506225204 15 43 3.2 12.9 0.00 0.53 0.53 45 1016.6
20260506225104 15 51 3.2 12.9 0.00 0.53 0.53 46 1016.6
20260506225004 15 54 3.2 12.9 0.00 0.53 0.53 46 1016.6
20260506224904 15 54 3.2 12.9 0.00 0.53 0.53 45 1016.6
20260506224804 15 55 3.2 12.9 0.00 0.53 0.53 46 1016.6
20260506224705 15 49 3.2 12.9 0.00 0.53 0.53 45 1016.6
20260506224604 15 47 3.2 12.9 0.00 0.53 0.53 45 1016.5
20260506224504 15 52 3.2 12.9 0.00 0.53 0.53 45 1016.5
20260506224404 15 46 3.2 12.9 0.00 0.53 0.53 44 1016.5
20260506224304 15 47 3.2 8.0 0.00 0.53 0.53 44 1016.5
20260506224204 15 52 3.2 9.7 0.00 0.53 0.53 44 1016.5
20260506224104 15 56 3.2 14.5 0.00 0.53 0.53 44 1016.5
20260506224004 15 59 3.2 14.5 0.00 0.53 0.53 46 1016.5
20260506223904 15 46 3.2 14.5 0.00 0.53 0.53 46 1016.5
20260506223804 15 37 3.2 14.5 0.00 0.53 0.53 46 1016.4
20260506223604 15 42 3.2 14.5 0.00 0.53 0.53 46 1016.4
20260506223404 15 35 3.2 14.5 0.00 0.53 0.53 46 1016.4
20260506223304 15 34 4.8 14.5 0.00 0.53 0.53 45 1016.4
20260506223204 15 23 4.8 14.5 0.00 0.53 0.53 46 1016.4
20260506223104 15 18 4.8 12.9 0.00 0.53 0.53 45 1016.4
20260506223004 15 17 4.8 12.9 0.00 0.53 0.53 44 1016.4
20260506222904 15 26 4.8 12.9 0.00 0.53 0.53 45 1016.3
20260506222804 15 34 4.8 12.9 0.00 0.53 0.53 46 1016.4
20260506222704 15 40 4.8 12.9 0.00 0.53 0.53 46 1016.4
20260506222604 15 38 4.8 12.9 0.00 0.53 0.53 45 1016.4
20260506222306 15 55 3.2 11.3 0.00 0.53 0.53 45 1016.4
20260506222204 15 67 3.2 9.7 0.00 0.53 0.53 46 1016.4
20260506222004 15 80 3.2 9.7 0.00 0.53 0.53 45 1016.4
20260506221904 15 80 3.2 9.7 0.00 0.53 0.53 44 1016.4
20260506221804 15 77 3.2 8.0 0.00 0.53 0.53 45 1016.4
20260506221705 15 76 3.2 9.7 0.00 0.53 0.53 46 1016.4
20260506221604 15 73 3.2 9.7 0.00 0.53 0.53 46 1016.4
20260506221504 15 68 3.2 9.7 0.00 0.53 0.53 47 1016.4
20260506221404 15 66 3.2 9.7 0.00 0.53 0.53 46 1016.4
20260506221304 15 65 3.2 9.7 0.00 0.53 0.53 45 1016.4
20260506221204 15 65 3.2 9.7 0.00 0.53 0.53 45 1016.4
20260506221104 15 65 3.2 9.7 0.00 0.53 0.53 45 1016.4
20260506220904 15 46 3.2 9.7 0.00 0.53 0.53 46 1016.3
20260506220804 15 41 3.2 9.7 0.00 0.53 0.53 45 1016.4
20260506220704 15 31 3.2 11.3 0.00 0.53 0.53 46 1016.3
20260506220504 15 31 3.2 11.3 0.00 0.53 0.53 46 1016.3
20260506220404 15 32 3.2 11.3 0.00 0.53 0.53 46 1016.4
20260506220304 15 36 3.2 11.3 0.00 0.53 0.53 46 1016.4
20260506220204 15 39 4.8 11.3 0.00 0.53 0.53 45 1016.4
20260506220104 15 38 4.8 11.3 0.00 0.53 0.53 46 1016.4
20260506220004 15 46 4.8 17.7 0.00 0.53 0.53 45 1016.4
20260506215904 15 50 4.8 17.7 0.00 0.53 0.53 45 1016.4
20260506215704 15 62 4.8 17.7 0.00 0.53 0.53 46 1016.4
20260506215604 15 60 4.8 17.7 0.00 0.53 0.53 47 1016.4
20260506215504 15 61 4.8 17.7 0.00 0.53 0.53 47 1016.4
20260506215306 15 61 4.8 17.7 0.00 0.53 0.53 46 1016.5
20260506215104 15 70 4.8 17.7 0.00 0.53 0.53 47 1016.5
20260506215006 15 72 4.8 12.9 0.00 0.53 0.53 46 1016.5
20260506214904 15 68 4.8 12.9 0.00 0.53 0.53 47 1016.6
20260506214804 15 60 3.2 12.9 0.00 0.53 0.53 47 1016.6
20260506214704 15 53 4.8 12.9 0.00 0.53 0.53 47 1016.6
20260506214604 15 41 4.8 12.9 0.00 0.53 0.53 47 1016.5
20260506214505 15 32 4.8 12.9 0.00 0.53 0.53 46 1016.6
20260506214404 15 37 4.8 12.9 0.00 0.53 0.53 48 1016.6
20260506214204 15 359 4.8 9.7 0.00 0.53 0.53 47 1016.6
20260506214104 15 350 4.8 9.7 0.00 0.53 0.53 47 1016.6
20260506213904 15 347 4.8 9.7 0.00 0.53 0.53 47 1016.6
20260506213704 15 348 4.8 9.7 0.00 0.53 0.53 48 1016.6
20260506213604 15 354 4.8 11.3 0.00 0.53 0.53 46 1016.6
20260506213404 15 353 6.4 11.3 0.00 0.53 0.53 46 1016.7
20260506213304 15 348 6.4 11.3 0.00 0.53 0.53 45 1016.7
20260506213204 15 345 6.4 12.9 0.00 0.53 0.53 46 1016.6
20260506213104 15 342 6.4 12.9 0.00 0.53 0.53 46 1016.7
20260506212904 15 347 6.4 12.9 0.00 0.53 0.53 47 1016.7
20260506212804 15 356 6.4 14.5 0.00 0.53 0.53 46 1016.7
20260506212704 15 8 6.4 14.5 0.00 0.53 0.53 46 1016.7
20260506212504 16 14 4.8 14.5 0.00 0.53 0.53 47 1016.7
20260506212404 16 9 4.8 14.5 0.00 0.53 0.53 46 1016.7
20260506212306 16 15 4.8 14.5 0.00 0.53 0.53 46 1016.7
20260506212204 16 30 4.8 14.5 0.00 0.53 0.53 45 1016.7
20260506212104 16 39 4.8 14.5 0.00 0.53 0.53 45 1016.7
20260506212004 16 45 4.8 14.5 0.00 0.53 0.53 44 1016.7
20260506211904 16 43 3.2 14.5 0.00 0.53 0.53 44 1016.8
20260506211804 16 39 3.2 14.5 0.00 0.53 0.53 45 1016.8
20260506211704 16 5 3.2 14.5 0.00 0.53 0.53 45 1016.8
20260506211604 16 357 3.2 9.7 0.00 0.53 0.53 43 1016.8
20260506211504 16 355 3.2 9.7 0.00 0.53 0.53 44 1016.7
20260506211404 16 359 3.2 9.7 0.00 0.53 0.53 43 1016.7
20260506211304 16 359 4.8 12.9 0.00 0.53 0.53 45 1016.8
20260506211204 16 8 4.8 12.9 0.00 0.53 0.53 43 1016.7
20260506211005 16 4 4.8 12.9 0.00 0.53 0.53 44 1016.7
20260506210904 16 19 4.8 12.9 0.00 0.53 0.53 44 1016.8
20260506210804 16 34 4.8 12.9 0.00 0.53 0.53 44 1016.8
20260506210704 16 58 4.8 12.9 0.00 0.53 0.53 44 1016.7
20260506210604 16 70 4.8 12.9 0.00 0.53 0.53 44 1016.8
20260506210504 16 80 4.8 12.9 0.00 0.53 0.53 46 1016.8
20260506210404 16 85 4.8 12.9 0.00 0.53 0.53 46 1016.8
20260506210304 16 88 4.8 14.5 0.00 0.53 0.53 45 1016.8
20260506210204 16 82 4.8 20.9 0.00 0.53 0.53 46 1016.9
20260506210004 16 82 4.8 20.9 0.00 0.53 0.53 45 1016.8
20260506205704 16 78 4.8 20.9 0.00 0.53 0.53 45 1016.8
20260506205504 16 74 3.2 20.9 0.00 0.53 0.53 44 1016.9
20260506205404 16 71 3.2 20.9 0.00 0.53 0.53 44 1016.9
20260506205306 16 71 3.2 20.9 0.00 0.53 0.53 45 1016.9
20260506205105 16 78 3.2 11.3 0.00 0.53 0.53 46 1016.9
20260506205004 16 72 3.2 11.3 0.00 0.53 0.53 45 1016.9
20260506204905 16 75 3.2 11.3 0.00 0.53 0.53 47 1016.9
20260506204705 16 77 3.2 11.3 0.00 0.53 0.53 44 1017.0
20260506204604 16 78 3.2 11.3 0.00 0.53 0.53 45 1017.1
20260506204404 15 82 4.8 12.9 0.00 0.53 0.53 45 1017.0
20260506204304 15 83 4.8 16.1 0.00 0.53 0.53 46 1017.1
20260506204204 15 86 6.4 20.9 0.00 0.53 0.53 46 1017.0
20260506204105 15 89 6.4 22.5 0.00 0.53 0.53 47 1017.1
20260506204004 15 91 6.4 22.5 0.00 0.53 0.53 47 1017.1
20260506203904 15 90 6.4 22.5 0.00 0.53 0.53 46 1017.1
20260506203804 15 89 4.8 22.5 0.00 0.53 0.53 46 1017.1
20260506203704 15 90 4.8 22.5 0.00 0.53 0.53 46 1017.2
20260506203604 15 88 4.8 22.5 0.00 0.53 0.53 45 1017.2
20260506203504 15 85 4.8 22.5 0.00 0.53 0.53 44 1017.2
20260506203404 15 78 4.8 22.5 0.00 0.53 0.53 45 1017.2
20260506203304 15 71 4.8 22.5 0.00 0.53 0.53 45 1017.2
20260506203104 15 14 4.8 12.9 0.00 0.53 0.53 47 1017.3
20260506203004 15 7 4.8 12.9 0.00 0.53 0.53 46 1017.3
20260506202904 15 358 4.8 12.9 0.00 0.53 0.53 46 1017.2
20260506202804 15 356 4.8 12.9 0.00 0.53 0.53 45 1017.2
20260506202704 15 3 4.8 12.9 0.00 0.53 0.53 46 1017.3
20260506202505 15 14 4.8 12.9 0.00 0.53 0.53 45 1017.3
20260506202404 15 19 4.8 12.9 0.00 0.53 0.53 46 1017.3
20260506202306 15 26 4.8 12.9 0.00 0.53 0.53 45 1017.4
20260506202204 15 36 4.8 12.9 0.00 0.53 0.53 47 1017.4
20260506202004 15 54 4.8 12.9 0.00 0.53 0.53 47 1017.4
20260506201804 15 56 4.8 12.9 0.00 0.53 0.53 48 1017.4
20260506201704 15 52 4.8 12.9 0.00 0.53 0.53 48 1017.3
20260506201604 15 60 4.8 12.9 0.00 0.53 0.53 47 1017.4
20260506201404 15 51 6.4 16.1 0.00 0.53 0.53 46 1017.5
20260506201204 15 31 6.4 16.1 0.00 0.53 0.53 47 1017.6
20260506201104 15 26 6.4 16.1 0.00 0.53 0.53 47 1017.6
20260506201004 15 29 6.4 16.1 0.00 0.53 0.53 47 1017.6
20260506200904 15 30 6.4 16.1 0.00 0.53 0.53 46 1017.6
20260506200704 15 21 4.8 16.1 0.00 0.53 0.53 46 1017.7
20260506200604 15 19 4.8 16.1 0.00 0.53 0.53 46 1017.7
20260506200504 15 14 3.2 12.9 0.00 0.53 0.53 47 1017.7
20260506200404 15 14 3.2 12.9 0.00 0.53 0.53 47 1017.7
20260506200304 15 20 3.2 12.9 0.00 0.53 0.53 46 1017.7
20260506200204 15 46 3.2 11.3 0.00 0.53 0.53 47 1017.7
20260506200004 15 87 3.2 16.1 0.00 0.53 0.53 50 1017.7
20260506195905 15 93 3.2 17.7 0.00 0.53 0.53 49 1017.7
20260506195805 15 100 3.2 17.7 0.00 0.53 0.53 49 1017.7
20260506195705 15 101 4.8 17.7 0.00 0.53 0.53 49 1017.6
20260506195605 15 102 4.8 17.7 0.00 0.53 0.53 47 1017.6
20260506195505 15 101 4.8 17.7 0.00 0.53 0.53 48 1017.8
20260506195405 15 100 4.8 17.7 0.00 0.53 0.53 49 1017.8
20260506195205 15 98 4.8 17.7 0.00 0.53 0.53 48 1017.8
20260506195105 15 97 4.8 17.7 0.00 0.53 0.53 47 1017.8
20260506195005 15 93 3.2 17.7 0.00 0.53 0.53 46 1017.8
20260506194905 15 91 3.2 11.3 0.00 0.53 0.53 48 1017.8
20260506194805 15 88 3.2 11.3 0.00 0.53 0.53 48 1017.7
20260506194705 15 84 3.2 11.3 0.00 0.53 0.53 47 1017.8
20260506194605 15 68 3.2 11.3 0.00 0.53 0.53 47 1017.8
20260506194505 15 57 3.2 8.0 0.00 0.53 0.53 46 1017.8
20260506194405 15 51 3.2 11.3 0.00 0.53 0.53 49 1017.9
20260506194305 15 53 3.2 11.3 0.00 0.53 0.53 46 1017.9
20260506194205 15 49 4.8 11.3 0.00 0.53 0.53 46 1017.9
20260506194105 15 48 4.8 11.3 0.00 0.53 0.53 45 1017.9
20260506193905 15 43 4.8 12.9 0.00 0.53 0.53 46 1018.0
20260506193704 15 33 4.8 14.5 0.00 0.53 0.53 45 1017.9
20260506193605 15 38 4.8 14.5 0.00 0.53 0.53 46 1018.0
20260506193505 15 42 4.8 14.5 0.00 0.53 0.53 47 1018.0
20260506193305 15 39 4.8 16.1 0.00 0.53 0.53 46 1018.0
20260506193205 15 35 4.8 16.1 0.00 0.53 0.53 47 1018.0
20260506193104 15 33 4.8 16.1 0.00 0.53 0.53 51 1018.1
20260506193004 15 33 4.8 16.1 0.00 0.53 0.53 47 1018.0
20260506192905 15 40 4.8 16.1 0.00 0.53 0.53 47 1018.1
20260506192805 15 48 4.8 16.1 0.00 0.53 0.53 46 1018.1
20260506192704 14 59 4.8 16.1 0.00 0.53 0.53 49 1018.0
20260506192604 14 52 4.8 16.1 0.00 0.53 0.53 46 1018.0
20260506192404 14 48 4.8 16.1 0.00 0.53 0.53 45 1018.0
20260506192306 14 57 4.8 12.9 0.00 0.53 0.53 45 1018.1
20260506192204 14 56 6.4 12.9 0.00 0.53 0.53 49 1018.1
20260506192004 14 35 6.4 19.3 0.00 0.53 0.53 47 1018.0
20260506191904 14 23 6.4 19.3 0.00 0.53 0.53 49 1018.0
20260506191805 14 14 6.4 19.3 0.00 0.53 0.53 47 1018.0
20260506191704 14 7 6.4 19.3 0.00 0.53 0.53 47 1018.0
20260506191604 14 9 6.4 19.3 0.00 0.53 0.53 49 1018.0
20260506191504 14 10 6.4 19.3 0.00 0.53 0.53 50 1017.9
20260506191404 14 4 6.4 19.3 0.00 0.53 0.53 49 1017.9
20260506191304 14 6 6.4 19.3 0.00 0.53 0.53 49 1017.9
20260506191205 14 14 6.4 19.3 0.00 0.53 0.53 49 1018.0
20260506191105 14 17 6.4 19.3 0.00 0.53 0.53 48 1018.0
20260506191005 14 17 6.4 17.7 0.00 0.53 0.53 48 1018.0
20260506190905 14 26 6.4 17.7 0.00 0.53 0.53 48 1018.0
20260506190705 14 43 6.4 24.1 0.00 0.53 0.53 48 1018.0
20260506190605 14 50 6.4 24.1 0.00 0.53 0.53 50 1018.0
20260506190505 14 46 6.4 24.1 0.00 0.53 0.53 48 1018.0
20260506190405 14 50 6.4 24.1 0.00 0.53 0.53 49 1017.9
20260506190305 14 50 6.4 24.1 0.00 0.53 0.53 51 1017.9
20260506190205 14 51 6.4 24.1 0.00 0.53 0.53 48 1017.9
20260506190105 14 57 6.4 24.1 0.00 0.53 0.53 48 1017.9
20260506190005 14 64 6.4 24.1 0.00 0.53 0.53 48 1017.8
20260506185905 14 64 6.4 24.1 0.00 0.53 0.53 47 1017.8
20260506185804 14 70 6.4 24.1 0.00 0.53 0.53 46 1017.9
20260506185705 14 70 6.4 17.7 0.00 0.53 0.53 46 1017.8
20260506185604 14 72 6.4 17.7 0.00 0.53 0.53 45 1017.8
20260506185504 14 80 6.4 17.7 0.00 0.53 0.53 47 1017.9
20260506185205 14 85 6.4 17.7 0.00 0.53 0.53 44 1017.8
20260506185104 13 86 6.4 19.3 0.00 0.53 0.53 48 1017.9
20260506185004 13 87 6.4 19.3 0.00 0.53 0.53 47 1017.8
20260506184905 13 84 4.8 19.3 0.00 0.53 0.53 48 1017.8
20260506184804 13 81 4.8 19.3 0.00 0.53 0.53 49 1017.8
20260506184704 13 78 4.8 19.3 0.00 0.53 0.53 48 1017.8
20260506184505 13 61 4.8 19.3 0.00 0.53 0.53 48 1017.9
20260506184404 13 55 6.4 19.3 0.00 0.53 0.53 48 1018.0
20260506184304 13 51 6.4 19.3 0.00 0.53 0.53 47 1017.9
20260506184204 13 50 6.4 19.3 0.00 0.53 0.53 49 1018.0
20260506184104 13 55 6.4 16.1 0.00 0.53 0.53 48 1017.9
20260506184004 13 60 6.4 16.1 0.00 0.53 0.53 47 1017.9
20260506183905 13 64 8.0 22.5 0.00 0.53 0.53 49 1017.9
20260506183804 13 66 8.0 22.5 0.00 0.53 0.53 46 1018.0
20260506183704 13 62 8.0 22.5 0.00 0.53 0.53 48 1018.0
20260506183604 13 63 8.0 22.5 0.00 0.53 0.53 47 1018.0
20260506183504 13 65 8.0 22.5 0.00 0.53 0.53 48 1017.9
20260506183404 13 63 6.4 22.5 0.00 0.53 0.53 48 1018.0
20260506183204 13 57 6.4 22.5 0.00 0.53 0.53 45 1017.9
20260506183104 13 48 6.4 22.5 0.00 0.53 0.53 46 1018.0
20260506183005 13 48 6.4 22.5 0.00 0.53 0.53 46 1018.0
20260506182904 13 40 4.8 17.7 0.00 0.53 0.53 47 1018.0
20260506182804 13 33 4.8 17.7 0.00 0.53 0.53 50 1018.0
20260506182705 13 36 4.8 17.7 0.00 0.53 0.53 50 1018.1
20260506182605 13 45 6.4 17.7 0.00 0.53 0.53 50 1018.1
20260506182404 13 30 6.4 17.7 0.00 0.53 0.53 50 1018.1
20260506182306 13 24 6.4 17.7 0.00 0.53 0.53 49 1018.1
20260506182205 13 32 6.4 17.7 0.00 0.53 0.53 50 1018.1
20260506182105 13 44 6.4 17.7 0.00 0.53 0.53 49 1018.1
20260506182005 13 38 6.4 17.7 0.00 0.53 0.53 49 1018.2
20260506181905 13 42 6.4 17.7 0.00 0.53 0.53 50 1018.2
20260506181805 13 35 6.4 17.7 0.00 0.53 0.53 50 1018.2
20260506181705 13 42 6.4 17.7 0.00 0.53 0.53 50 1018.1
20260506181604 13 40 8.0 17.7 0.00 0.53 0.53 49 1018.2
20260506181504 13 52 8.0 17.7 0.00 0.53 0.53 49 1018.2
20260506181404 13 59 8.0 17.7 0.00 0.53 0.53 50 1018.3
20260506181204 13 67 8.0 22.5 0.00 0.53 0.53 50 1018.4
20260506181104 13 70 9.7 22.5 0.00 0.53 0.53 50 1018.3
20260506181004 13 74 9.7 22.5 0.00 0.53 0.53 51 1018.4
20260506180904 13 76 8.0 22.5 0.00 0.53 0.53 50 1018.4
20260506180704 13 83 8.0 22.5 0.00 0.53 0.53 51 1018.4
20260506180604 13 79 8.0 22.5 0.00 0.53 0.53 51 1018.4
20260506180504 13 77 6.4 22.5 0.00 0.53 0.53 53 1018.4
20260506180404 13 80 6.4 22.5 0.00 0.53 0.53 52 1018.4
20260506180304 13 84 6.4 22.5 0.00 0.53 0.53 50 1018.4
20260506180104 13 76 4.8 16.1 0.00 0.53 0.53 51 1018.6
20260506175904 13 50 4.8 14.5 0.00 0.53 0.53 53 1018.5
20260506175804 13 46 4.8 14.5 0.00 0.53 0.53 52 1018.5
20260506175704 13 48 4.8 14.5 0.00 0.53 0.53 52 1018.5
20260506175604 13 59 4.8 14.5 0.00 0.53 0.53 52 1018.5
20260506175504 13 44 4.8 12.9 0.00 0.53 0.53 52 1018.5
20260506175404 13 32 4.8 12.9 0.00 0.53 0.53 53 1018.5
20260506175306 13 28 4.8 12.9 0.00 0.53 0.53 52 1018.5
20260506175204 13 31 6.4 16.1 0.00 0.53 0.53 51 1018.5
20260506175104 13 34 6.4 16.1 0.00 0.53 0.53 52 1018.5
20260506175005 13 34 6.4 17.7 0.00 0.53 0.53 53 1018.5
20260506174905 13 31 6.4 17.7 0.00 0.53 0.53 54 1018.5
20260506174804 13 30 6.4 17.7 0.00 0.53 0.53 55 1018.5
20260506174605 13 35 6.4 17.7 0.00 0.53 0.53 53 1018.5
20260506174504 13 38 6.4 17.7 0.00 0.53 0.53 51 1018.5
20260506174304 13 51 4.8 17.7 0.00 0.53 0.53 52 1018.6
20260506174204 13 49 4.8 17.7 0.00 0.53 0.53 53 1018.5
20260506174104 13 41 4.8 20.9 0.00 0.53 0.53 54 1018.5
20260506174004 13 42 6.4 20.9 0.00 0.53 0.53 57 1018.5
20260506173904 13 41 6.4 20.9 0.00 0.53 0.53 56 1018.5
20260506173804 13 34 6.4 20.9 0.00 0.53 0.53 55 1018.6
20260506173605 13 29 6.4 20.9 0.00 0.53 0.53 57 1018.6
20260506173504 13 23 6.4 20.9 0.00 0.53 0.53 58 1018.6
20260506173404 12 14 6.4 20.9 0.00 0.53 0.53 56 1018.6
20260506173304 12 9 6.4 20.9 0.00 0.53 0.53 56 1018.7
20260506173204 12 6 6.4 20.9 0.00 0.53 0.53 56 1018.7
20260506173104 12 5 6.4 20.9 0.00 0.53 0.53 56 1018.6
20260506173004 12 9 6.4 17.7 0.00 0.53 0.53 55 1018.7
20260506172904 12 12 6.4 17.7 0.00 0.53 0.53 56 1018.6
20260506172804 12 22 6.4 17.7 0.00 0.53 0.53 58 1018.7
20260506172704 12 21 6.4 17.7 0.00 0.53 0.53 57 1018.7
20260506172605 12 20 6.4 17.7 0.00 0.53 0.53 56 1018.7
20260506172405 12 36 4.8 17.7 0.00 0.53 0.53 59 1018.7
20260506172307 12 39 4.8 17.7 0.00 0.53 0.53 60 1018.8
20260506172105 12 53 4.8 11.3 0.00 0.53 0.53 59 1018.7
20260506172004 12 56 4.8 11.3 0.00 0.53 0.53 59 1018.7
20260506171805 12 52 4.8 11.3 0.00 0.53 0.53 61 1018.8
20260506171604 12 45 4.8 12.9 0.00 0.53 0.53 63 1018.8
20260506171504 12 57 4.8 14.5 0.00 0.53 0.53 62 1018.8
20260506171305 12 54 4.8 14.5 0.00 0.53 0.53 63 1018.9
20260506171205 12 55 4.8 14.5 0.00 0.53 0.53 63 1018.9
20260506171104 12 49 4.8 14.5 0.00 0.53 0.53 63 1018.9
20260506171005 12 47 6.4 14.5 0.00 0.53 0.53 63 1018.9
20260506170805 12 61 6.4 17.7 0.00 0.53 0.53 63 1018.7
20260506170604 12 68 4.8 17.7 0.00 0.53 0.53 64 1018.7
20260506170505 12 58 6.4 17.7 0.00 0.53 0.53 66 1018.7
20260506170304 11 57 4.8 17.7 0.00 0.53 0.53 66 1018.8
20260506170205 11 60 4.8 17.7 0.00 0.53 0.53 66 1018.7
20260506170004 12 57 4.8 17.7 0.00 0.53 0.53 65 1018.7
20260506165904 12 39 4.8 17.7 0.00 0.53 0.53 68 1018.7
20260506165804 12 10 4.8 14.5 0.00 0.53 0.53 68 1018.7
20260506165604 12 349 4.8 14.5 0.00 0.53 0.53 68 1018.7
20260506165504 11 356 4.8 14.5 0.00 0.53 0.53 69 1018.7
20260506165405 11 1 6.4 14.5 0.00 0.53 0.53 69 1018.7
20260506165306 11 8 6.4 14.5 0.00 0.53 0.53 68 1018.7
20260506165205 11 9 6.4 14.5 0.00 0.53 0.53 69 1018.7
20260506165105 11 2 6.4 14.5 0.00 0.53 0.53 68 1018.7
20260506164905 11 8 6.4 16.1 0.00 0.53 0.53 67 1018.7
20260506164805 11 14 6.4 16.1 0.00 0.53 0.53 67 1018.8
20260506164705 11 20 6.4 16.1 0.00 0.53 0.53 67 1018.8
20260506164604 11 30 6.4 16.1 0.00 0.56 0.53 67 1018.8
20260506164504 11 28 6.4 16.1 0.00 0.56 0.53 67 1018.8
20260506164305 11 31 6.4 16.1 0.00 0.56 0.53 68 1018.8
20260506164205 11 32 6.4 16.1 0.00 0.56 0.53 66 1018.8
20260506164105 11 34 6.4 16.1 0.00 0.56 0.53 66 1018.8
20260506164005 11 30 6.4 16.1 0.00 0.56 0.53 66 1018.8
20260506163905 11 30 6.4 19.3 0.00 0.56 0.53 65 1018.8
20260506163805 11 25 6.4 19.3 0.00 0.56 0.53 65 1018.8
20260506163605 11 16 6.4 19.3 0.00 0.56 0.53 67 1018.8
20260506163505 11 15 6.4 19.3 0.00 0.56 0.53 68 1018.8
20260506163405 11 9 6.4 19.3 0.00 0.56 0.53 67 1018.7
20260506163304 11 12 6.4 19.3 0.00 0.56 0.53 68 1018.7
20260506163205 11 7 6.4 19.3 0.00 0.56 0.53 68 1018.7
20260506163104 11 5 6.4 19.3 0.00 0.56 0.53 68 1018.7
20260506163005 11 7 6.4 19.3 0.00 0.56 0.53 70 1018.6
20260506162905 11 8 4.8 16.1 0.00 0.56 0.53 72 1018.6
20260506162705 11 13 4.8 16.1 0.00 0.56 0.53 72 1018.5
20260506162604 11 23 4.8 16.1 0.00 0.56 0.53 72 1018.5
20260506162504 11 30 4.8 16.1 0.00 0.56 0.53 72 1018.5
20260506162307 11 28 6.4 16.1 0.00 0.56 0.53 71 1018.4
20260506162204 11 19 6.4 20.9 0.00 0.56 0.53 71 1018.3
20260506162104 11 7 6.4 20.9 0.00 0.56 0.53 73 1018.2
20260506162004 11 1 6.4 20.9 0.00 0.56 0.53 74 1018.2
20260506161904 10 4 6.4 20.9 0.00 0.56 0.53 74 1018.3
20260506161705 10 357 8.0 20.9 0.00 0.56 0.53 74 1018.5
20260506161604 10 352 8.0 20.9 0.00 0.56 0.53 74 1018.5
20260506161505 10 346 8.0 20.9 0.00 0.56 0.53 75 1018.6
20260506161404 10 344 8.0 20.9 0.00 0.56 0.53 74 1018.5
20260506161304 10 345 8.0 20.9 0.00 0.56 0.53 74 1018.5
20260506161104 10 354 8.0 14.5 0.00 0.56 0.53 74 1018.5
20260506161004 10 355 6.4 14.5 0.00 0.56 0.53 73 1018.5
20260506160905 10 354 6.4 14.5 0.00 0.56 0.53 74 1018.6
20260506160804 10 353 6.4 14.5 0.00 0.56 0.53 74 1018.6
20260506160704 10 355 6.4 14.5 0.00 0.56 0.53 74 1018.7
20260506160604 10 357 6.4 14.5 0.00 0.56 0.53 74 1018.7
20260506160504 10 359 6.4 14.5 0.00 0.56 0.53 74 1018.7
20260506160404 10 359 6.4 14.5 0.00 0.56 0.53 74 1018.7
20260506160304 10 3 6.4 14.5 0.00 0.56 0.53 74 1018.7
20260506160204 10 3 6.4 14.5 0.00 0.56 0.53 74 1018.7
20260506160104 9 6 6.4 14.5 0.00 0.56 0.53 74 1018.7
20260506160004 9 359 6.4 16.1 0.00 0.56 0.53 74 1018.7
20260506155904 9 355 6.4 16.1 0.00 0.56 0.53 74 1018.7
20260506155804 9 350 6.4 16.1 0.00 0.56 0.53 74 1018.7
20260506155704 9 352 6.4 16.1 0.00 0.56 0.53 74 1018.8
20260506155604 9 350 4.8 16.1 0.00 0.56 0.53 74 1018.8
20260506155504 9 354 4.8 16.1 0.00 0.56 0.53 74 1018.8
20260506155404 9 357 4.8 16.1 0.00 0.56 0.53 74 1018.8
20260506155306 9 357 4.8 16.1 0.00 0.56 0.53 74 1018.8
20260506155204 9 1 4.8 16.1 0.00 0.56 0.53 74 1018.9
20260506155104 9 1 4.8 16.1 0.00 0.56 0.53 74 1018.8
20260506155004 9 16 4.8 12.9 0.00 0.56 0.53 74 1018.8
20260506154904 9 24 4.8 12.9 0.00 0.56 0.53 76 1018.8
20260506154704 9 25 4.8 12.9 0.00 0.56 0.53 75 1018.9
20260506154605 9 22 4.8 12.9 0.00 0.56 0.53 75 1018.9
20260506154504 9 19 4.8 12.9 0.00 0.56 0.53 75 1018.9
20260506154404 9 15 4.8 12.9 0.00 0.56 0.53 75 1018.9
20260506154304 9 7 4.8 12.9 0.00 0.56 0.53 76 1019.0
20260506154204 9 354 4.8 12.9 0.00 0.56 0.53 75 1019.0
20260506154104 9 349 4.8 12.9 0.00 0.56 0.53 76 1018.9
20260506154004 9 343 4.8 12.9 0.00 0.56 0.53 76 1019.0
20260506153904 9 338 4.8 12.9 0.00 0.56 0.53 76 1018.9
20260506153604 8 328 4.8 12.9 0.00 0.56 0.53 77 1018.9
20260506153404 8 330 4.8 12.9 0.00 0.56 0.53 76 1018.9
20260506153304 8 333 4.8 12.9 0.00 0.56 0.53 76 1018.8
20260506152804 8 3 3.2 12.9 0.00 0.56 0.53 77 1018.8
20260506152704 8 27 3.2 9.7 0.00 0.56 0.53 77 1018.7
20260506152504 8 28 4.8 11.3 0.00 0.56 0.53 77 1018.7
20260506152404 8 26 4.8 11.3 0.00 0.56 0.53 77 1018.7
20260506152306 8 23 4.8 11.3 0.00 0.56 0.53 77 1018.6
20260506152204 8 18 4.8 11.3 0.00 0.56 0.53 77 1018.5
20260506152104 8 20 4.8 11.3 0.00 0.56 0.53 77 1018.5
20260506152005 8 23 4.8 11.3 0.00 0.56 0.53 77 1018.5
20260506151905 8 25 4.8 11.3 0.00 0.56 0.53 76 1018.5
20260506151805 8 25 4.8 11.3 0.00 0.56 0.53 76 1018.5
20260506151704 8 24 3.2 11.3 0.00 0.56 0.53 76 1018.5
20260506151504 8 30 3.2 9.7 0.00 0.56 0.53 77 1018.5
20260506151405 8 29 3.2 9.7 0.00 0.56 0.53 77 1018.5
20260506151205 8 40 3.2 8.0 0.00 0.56 0.53 77 1018.5
20260506151105 8 40 3.2 8.0 0.00 0.56 0.53 77 1018.5
20260506151005 8 41 3.2 8.0 0.00 0.56 0.53 77 1018.5
20260506150904 8 34 3.2 8.0 0.00 0.56 0.53 78 1018.6
20260506150805 8 31 3.2 9.7 0.00 0.56 0.53 77 1018.6
20260506150704 8 29 3.2 9.7 0.00 0.56 0.53 77 1018.6
20260506150605 8 30 3.2 9.7 0.00 0.56 0.53 77 1018.6
20260506150505 8 27 3.2 9.7 0.00 0.56 0.53 77 1018.7
20260506150404 8 28 3.2 9.7 0.00 0.56 0.53 77 1018.6
20260506150305 8 29 3.2 9.7 0.00 0.56 0.53 78 1018.7
20260506150204 8 31 3.2 9.7 0.00 0.56 0.53 79 1018.7
20260506150104 8 28 3.2 9.7 0.00 0.56 0.53 78 1018.7
20260506150005 8 23 3.2 9.7 0.00 0.56 0.53 78 1018.7
20260506145904 8 28 3.2 9.7 0.00 0.56 0.53 79 1018.7
20260506145704 8 25 1.6 6.4 0.00 0.56 0.53 80 1018.7
20260506145605 8 19 1.6 6.4 0.00 0.56 0.53 80 1018.6
20260506145505 8 20 1.6 6.4 0.00 0.56 0.53 80 1018.7